Regional Weather Roundup
Issued by NWS

Home | Current Version | Previous Version | Graphics & Text | Print | Product List | Glossary On
Versions: 1 2 3 4 5 6 7 8 9 10 11 12 13 14 15 16 17 18 19 20 21 22 23 24 25 26 27 28 29 30 31 32 33 34 35 36 37 38 39 40 41 42 43 44 45 46 47 48 49 50
000
ASUS43 KFSD 231202
RWRSD

WEATHER ROUNDUP FOR SOUTH DAKOTA
NATIONAL WEATHER SERVICE SIOUX FALLS SD
700 AM CDT TUE SEP 23 2014

NOTE: "FAIR" INDICATES FEW OR NO CLOUDS BELOW 12,000 FEET WITH NO
SIGNIFICANT WEATHER AND/OR OBSTRUCTIONS TO VISIBILITY.


SDZ001>005-009-010-012>017-231300-
NORTHWEST AND NORTH CENTRAL SOUTH DAKOTA

CITY           SKY/WX    TMP DP  RH WIND       PRES   REMARKS
FAITH            N/A     56  54  93 SE15      29.90R
MOBRIDGE       CLOUDY    63  55  75 S13       29.92R
$$

SDZ012>016-024>037-041>051-057-063-072>074-231300-
SOUTHWEST AND SOUTH CENTRAL SOUTH DAKOTA

CITY           SKY/WX    TMP DP  RH WIND       PRES   REMARKS
RAPID CTY ARPT MOCLDY    59  54  83 CALM      29.89F
PIERRE         PTCLDY    59  53  80 SE14      29.93S
CUSTER         MOCLDY    55  46  71 W12       30.02S
ELLSWORTH AFB  CLOUDY    61  55  78 N8        29.89
PHILIP         MOCLDY    55  51  86 E6        29.90R
PINE RIDGE     MOCLDY    54  50  86 W7        29.93R
WINNER         PTSUNNY   60  53  77 S21G29    29.95F
$$

SDZ004>011-016>023-039-040-231300-
NORTHEAST SOUTH DAKOTA

CITY           SKY/WX    TMP DP  RH WIND       PRES   REMARKS
ABERDEEN       CLOUDY    60  53  77 SE10      30.00S
WATERTOWN      CLOUDY    55  49  80 SE8       30.07S
SISSETON         N/A     50  48  93 SE8       30.05S
$$

SDZ017-020-022-023-036>040-048>070-231300-
SOUTHEAST SOUTH DAKOTA

CITY           SKY/WX    TMP DP  RH WIND       PRES   REMARKS
SIOUX FALLS    CLOUDY    59  52  77 S10       30.12R
HURON          LGT RAIN  60  53  77 S9        30.02S
CHAMBERLAIN    MOCLDY    58  54  85 SE15      29.98S
MITCHELL       LGT RAIN  60  57  89 S13G26    30.06R
YANKTON        CLOUDY    57  54  88 S13G20    30.11S
$$

ABBREVIATIONS USED IN REMARKS
   TC - TEMPERATURE IN CELSIUS
  WCI - WIND CHILL INDEX
   HX - HEAT INDEX
  VSB - VISIBILITY



USA.gov is the U.S. government's official web portal to all federal, state and local government web resources and services.